Year,Month,Day,Hour,Minute,Value (Times are PST for temperature in C)
2008,08,16,00,00,19.70
2008,08,16,00,01,19.70
2008,08,16,00,02,19.70
2008,08,16,00,03,19.70
2008,08,16,00,04,19.70
2008,08,16,00,05,19.60
2008,08,16,00,06,19.60
2008,08,16,00,07,19.60
2008,08,16,00,08,19.50
2008,08,16,00,09,19.50
2008,08,16,00,10,19.40
2008,08,16,00,11,19.40
2008,08,16,00,12,19.40
2008,08,16,00,13,19.30
2008,08,16,00,14,19.30
2008,08,16,00,15,19.30
2008,08,16,00,16,19.30
2008,08,16,00,17,19.30
2008,08,16,00,18,19.30
2008,08,16,00,19,19.20
2008,08,16,00,20,19.20
2008,08,16,00,21,19.20
2008,08,16,00,22,19.20
2008,08,16,00,23,19.10
2008,08,16,00,24,19.10
2008,08,16,00,25,19.10
2008,08,16,00,26,19.10
2008,08,16,00,27,19.10
2008,08,16,00,28,19.10
2008,08,16,00,29,19.10
2008,08,16,00,30,19.10
2008,08,16,00,31,19.10
2008,08,16,00,32,19.00
2008,08,16,00,33,18.90
2008,08,16,00,34,18.90
2008,08,16,00,35,18.90
2008,08,16,00,36,18.90
2008,08,16,00,37,18.90
2008,08,16,00,38,18.90
2008,08,16,00,39,18.90
2008,08,16,00,40,18.90
2008,08,16,00,41,18.90
2008,08,16,00,42,18.90
2008,08,16,00,43,18.90
2008,08,16,00,44,18.90
2008,08,16,00,45,18.90
2008,08,16,00,46,18.90
2008,08,16,00,47,18.80
2008,08,16,00,48,18.80
2008,08,16,00,49,18.80
2008,08,16,00,50,18.80
2008,08,16,00,51,18.80
2008,08,16,00,52,18.80
2008,08,16,00,53,18.80
2008,08,16,00,54,18.80
2008,08,16,00,55,18.80
2008,08,16,00,56,18.80
2008,08,16,00,57,18.70
2008,08,16,00,58,18.70
2008,08,16,00,59,18.70
2008,08,16,01,00,18.70
2008,08,16,01,01,18.70
2008,08,16,01,02,18.70
2008,08,16,01,03,18.70
2008,08,16,01,04,18.70
2008,08,16,01,05,18.70
2008,08,16,01,06,18.70
2008,08,16,01,07,18.70
2008,08,16,01,08,18.70
2008,08,16,01,09,18.70
2008,08,16,01,10,18.60
2008,08,16,01,11,18.60
2008,08,16,01,12,18.60
2008,08,16,01,13,18.60
2008,08,16,01,14,18.60
2008,08,16,01,15,18.60
2008,08,16,01,16,18.50
2008,08,16,01,17,18.50
2008,08,16,01,18,18.50
2008,08,16,01,19,18.50
2008,08,16,01,20,18.50
2008,08,16,01,21,18.50
2008,08,16,01,22,18.50
2008,08,16,01,23,18.60
2008,08,16,01,24,18.50
2008,08,16,01,25,18.50
2008,08,16,01,26,18.50
2008,08,16,01,27,18.50
2008,08,16,01,28,18.50
2008,08,16,01,29,18.50
2008,08,16,01,30,18.50
2008,08,16,01,31,18.50
2008,08,16,01,32,18.50
2008,08,16,01,33,18.50
2008,08,16,01,34,18.50
2008,08,16,01,35,18.50
2008,08,16,01,36,18.50
2008,08,16,01,37,18.50
2008,08,16,01,38,18.50
2008,08,16,01,39,18.50
2008,08,16,01,40,18.60
2008,08,16,01,41,18.60
2008,08,16,01,42,18.60
2008,08,16,01,43,18.60
2008,08,16,01,44,18.70
2008,08,16,01,45,18.70
2008,08,16,01,46,18.70
2008,08,16,01,47,18.70
2008,08,16,01,48,18.60
2008,08,16,01,49,18.60
2008,08,16,01,50,18.60
2008,08,16,01,51,18.60
2008,08,16,01,52,18.60
2008,08,16,01,53,18.60
2008,08,16,01,54,18.60
2008,08,16,01,55,18.60
2008,08,16,01,56,18.50
2008,08,16,01,57,18.50
2008,08,16,01,58,18.50
2008,08,16,01,59,18.50
2008,08,16,02,00,18.50
2008,08,16,02,01,18.50
2008,08,16,02,02,18.40
2008,08,16,02,03,18.40
2008,08,16,02,04,18.40
2008,08,16,02,05,18.30
2008,08,16,02,06,18.30
2008,08,16,02,07,18.30
2008,08,16,02,08,18.30
2008,08,16,02,09,18.30
2008,08,16,02,10,18.30
2008,08,16,02,11,18.20
2008,08,16,02,12,18.20
2008,08,16,02,13,18.20
2008,08,16,02,14,18.20
2008,08,16,02,15,18.20
2008,08,16,02,16,18.20
2008,08,16,02,17,18.20
2008,08,16,02,18,18.20
2008,08,16,02,19,18.20
2008,08,16,02,20,18.10
2008,08,16,02,21,18.10
2008,08,16,02,22,18.10
2008,08,16,02,23,18.10
2008,08,16,02,24,18.10
2008,08,16,02,25,18.10
2008,08,16,02,26,18.10
2008,08,16,02,27,18.10
2008,08,16,02,28,18.10
2008,08,16,02,29,18.10
2008,08,16,02,30,18.10
2008,08,16,02,31,18.10
2008,08,16,02,32,18.00
2008,08,16,02,33,17.90
2008,08,16,02,34,17.90
2008,08,16,02,35,17.90
2008,08,16,02,36,17.90
2008,08,16,02,37,17.90
2008,08,16,02,38,17.90
2008,08,16,02,39,17.90
2008,08,16,02,40,17.90
2008,08,16,02,41,17.90
2008,08,16,02,42,17.90
2008,08,16,02,43,17.90
2008,08,16,02,44,17.90
2008,08,16,02,45,17.90
2008,08,16,02,46,17.90
2008,08,16,02,47,17.90
2008,08,16,02,48,17.90
2008,08,16,02,49,17.90
2008,08,16,02,50,17.90
2008,08,16,02,51,17.90
2008,08,16,02,52,17.90
2008,08,16,02,53,17.90
2008,08,16,02,54,17.90
2008,08,16,02,55,17.90
2008,08,16,02,56,17.90
2008,08,16,02,57,17.90
2008,08,16,02,58,17.90
2008,08,16,02,59,17.90
2008,08,16,03,00,17.90
2008,08,16,03,01,17.90
2008,08,16,03,02,17.80
2008,08,16,03,03,17.90
2008,08,16,03,04,17.90
2008,08,16,03,05,17.90
2008,08,16,03,06,17.80
2008,08,16,03,07,17.80
2008,08,16,03,08,17.80
2008,08,16,03,09,17.80
2008,08,16,03,10,17.80
2008,08,16,03,11,17.70
2008,08,16,03,12,17.70
2008,08,16,03,13,17.70
2008,08,16,03,14,17.70
2008,08,16,03,15,17.70
2008,08,16,03,16,17.70
2008,08,16,03,17,17.70
2008,08,16,03,18,17.70
2008,08,16,03,19,17.70
2008,08,16,03,20,17.70
2008,08,16,03,21,17.70
2008,08,16,03,22,17.70
2008,08,16,03,23,17.70
2008,08,16,03,24,17.70
2008,08,16,03,25,17.60
2008,08,16,03,26,17.60
2008,08,16,03,27,17.60
2008,08,16,03,28,17.60
2008,08,16,03,29,17.60
2008,08,16,03,30,17.60
2008,08,16,03,31,17.60
2008,08,16,03,32,17.60
2008,08,16,03,33,17.60
2008,08,16,03,34,17.60
2008,08,16,03,35,17.60
2008,08,16,03,36,17.60
2008,08,16,03,37,17.60
2008,08,16,03,38,17.60
2008,08,16,03,39,17.60
2008,08,16,03,40,17.50
2008,08,16,03,41,17.50
2008,08,16,03,42,17.50
2008,08,16,03,43,17.50
2008,08,16,03,44,17.50
2008,08,16,03,45,17.50
2008,08,16,03,46,17.50
2008,08,16,03,47,17.50
2008,08,16,03,48,17.50
2008,08,16,03,49,17.40
2008,08,16,03,50,17.40
2008,08,16,03,51,17.50
2008,08,16,03,52,17.50
2008,08,16,03,53,17.50
2008,08,16,03,54,17.50
2008,08,16,03,55,17.60
2008,08,16,03,56,17.60
2008,08,16,03,57,17.60
2008,08,16,03,58,17.60
2008,08,16,03,59,17.60
2008,08,16,04,00,17.50
2008,08,16,04,01,17.50
2008,08,16,04,02,17.50
2008,08,16,04,03,17.50
2008,08,16,04,04,17.40
2008,08,16,04,05,17.40
2008,08,16,04,06,17.40
2008,08,16,04,07,17.40
2008,08,16,04,08,17.40
2008,08,16,04,09,17.40
2008,08,16,04,10,17.30
2008,08,16,04,11,17.30
2008,08,16,04,12,17.30
2008,08,16,04,13,17.30
2008,08,16,04,14,17.30
2008,08,16,04,15,17.30
2008,08,16,04,16,17.30
2008,08,16,04,17,17.30
2008,08,16,04,18,17.30
2008,08,16,04,19,17.30
2008,08,16,04,20,17.20
2008,08,16,04,21,17.20
2008,08,16,04,22,17.20
2008,08,16,04,23,17.20
2008,08,16,04,24,17.20
2008,08,16,04,25,17.20
2008,08,16,04,26,17.20
2008,08,16,04,27,17.20
2008,08,16,04,28,17.10
2008,08,16,04,29,17.10
2008,08,16,04,30,17.10
2008,08,16,04,31,17.10
2008,08,16,04,32,17.10
2008,08,16,04,33,17.10
2008,08,16,04,34,17.10
2008,08,16,04,35,17.10
2008,08,16,04,36,17.10
2008,08,16,04,37,17.00
2008,08,16,04,38,17.00
2008,08,16,04,39,17.00
2008,08,16,04,40,17.00
2008,08,16,04,41,17.00
2008,08,16,04,42,17.00
2008,08,16,04,43,17.00
2008,08,16,04,44,17.00
2008,08,16,04,45,16.90
2008,08,16,04,46,16.90
2008,08,16,04,47,16.90
2008,08,16,04,48,16.90
2008,08,16,04,49,16.90
2008,08,16,04,50,16.80
2008,08,16,04,51,16.80
2008,08,16,04,52,16.80
2008,08,16,04,53,16.80
2008,08,16,04,54,16.80
2008,08,16,04,55,16.70
2008,08,16,04,56,16.70
2008,08,16,04,57,16.70
2008,08,16,04,58,16.70
2008,08,16,04,59,16.70
2008,08,16,05,00,16.70
2008,08,16,05,01,16.70
2008,08,16,05,02,16.70
2008,08,16,05,03,16.70
2008,08,16,05,04,16.70
2008,08,16,05,05,16.70
2008,08,16,05,06,16.70
2008,08,16,05,07,16.70
2008,08,16,05,08,16.70
2008,08,16,05,09,16.70
2008,08,16,05,10,16.60
2008,08,16,05,11,16.60
2008,08,16,05,12,16.60
2008,08,16,05,13,16.60
2008,08,16,05,14,16.60
2008,08,16,05,15,16.60
2008,08,16,05,16,16.60
2008,08,16,05,17,16.60
2008,08,16,05,18,16.50
2008,08,16,05,19,16.60
2008,08,16,05,20,16.60
2008,08,16,05,21,16.50
2008,08,16,05,22,16.40
2008,08,16,05,23,16.40
2008,08,16,05,24,16.40
2008,08,16,05,25,16.40
2008,08,16,05,26,16.40
2008,08,16,05,27,16.40
2008,08,16,05,28,16.40
2008,08,16,05,29,16.40
2008,08,16,05,30,16.40
2008,08,16,05,31,16.40
2008,08,16,05,32,16.40
2008,08,16,05,33,16.40
2008,08,16,05,34,16.40
2008,08,16,05,35,16.40
2008,08,16,05,36,16.40
2008,08,16,05,37,16.40
2008,08,16,05,38,16.40
2008,08,16,05,39,16.40
2008,08,16,05,40,16.40
2008,08,16,05,41,16.40
2008,08,16,05,42,16.40
2008,08,16,05,43,16.40
2008,08,16,05,44,16.40
2008,08,16,05,45,16.40
2008,08,16,05,46,16.40
2008,08,16,05,47,16.40
2008,08,16,05,48,16.40
2008,08,16,05,49,16.40
2008,08,16,05,50,16.40
2008,08,16,05,51,16.40
2008,08,16,05,52,16.40
2008,08,16,05,53,16.40
2008,08,16,05,54,16.40
2008,08,16,05,55,16.40
2008,08,16,05,56,16.40
2008,08,16,05,57,16.40
2008,08,16,05,58,16.40
2008,08,16,05,59,16.40
2008,08,16,06,00,16.40
2008,08,16,06,01,16.50
2008,08,16,06,02,16.60
2008,08,16,06,03,16.60
2008,08,16,06,04,16.60
2008,08,16,06,05,16.60
2008,08,16,06,06,16.40
2008,08,16,06,07,16.40
2008,08,16,06,08,16.40
2008,08,16,06,09,16.40
2008,08,16,06,10,16.40
2008,08,16,06,11,16.40
2008,08,16,06,12,16.40
2008,08,16,06,13,16.40
2008,08,16,06,14,16.30
2008,08,16,06,15,16.30
2008,08,16,06,16,16.30
2008,08,16,06,17,16.30
2008,08,16,06,18,16.30
2008,08,16,06,19,16.30
2008,08,16,06,20,16.20
2008,08,16,06,21,16.20
2008,08,16,06,22,16.20
2008,08,16,06,23,16.20
2008,08,16,06,24,16.10
2008,08,16,06,25,16.10
2008,08,16,06,26,16.10
2008,08,16,06,27,16.10
2008,08,16,06,28,16.10
2008,08,16,06,29,16.10
2008,08,16,06,30,16.10
2008,08,16,06,31,16.10
2008,08,16,06,32,16.10
2008,08,16,06,33,16.10
2008,08,16,06,34,15.90
2008,08,16,06,35,15.90
2008,08,16,06,36,15.90
2008,08,16,06,37,15.90
2008,08,16,06,38,15.90
2008,08,16,06,39,15.90
2008,08,16,06,40,15.90
2008,08,16,06,41,15.90
2008,08,16,06,42,15.90
2008,08,16,06,43,15.90
2008,08,16,06,44,15.90
2008,08,16,06,45,16.00
2008,08,16,06,46,16.10
2008,08,16,06,47,16.10
2008,08,16,06,48,16.10
2008,08,16,06,49,16.10
2008,08,16,06,50,16.10
2008,08,16,06,51,16.10
2008,08,16,06,52,16.10
2008,08,16,06,53,16.10
2008,08,16,06,54,16.10
2008,08,16,06,55,16.20
2008,08,16,06,56,16.20
2008,08,16,06,57,16.20
2008,08,16,06,58,16.20
2008,08,16,06,59,16.20
2008,08,16,07,00,16.20
2008,08,16,07,01,16.20
2008,08,16,07,02,16.20
2008,08,16,07,03,16.20
2008,08,16,07,04,16.20
2008,08,16,07,05,16.20
2008,08,16,07,06,16.20
2008,08,16,07,07,16.20
2008,08,16,07,08,16.20
2008,08,16,07,09,16.20
2008,08,16,07,10,16.20
2008,08,16,07,11,16.20
2008,08,16,07,12,16.20
2008,08,16,07,13,16.20
2008,08,16,07,14,16.20
2008,08,16,07,15,16.30
2008,08,16,07,16,16.30
2008,08,16,07,17,16.30
2008,08,16,07,18,16.30
2008,08,16,07,19,16.30
2008,08,16,07,20,16.30
2008,08,16,07,21,16.30
2008,08,16,07,22,16.40
2008,08,16,07,23,16.40
2008,08,16,07,24,16.40
2008,08,16,07,25,16.40
2008,08,16,07,26,16.40
2008,08,16,07,27,16.40
2008,08,16,07,28,16.40
2008,08,16,07,29,16.50
2008,08,16,07,30,16.60
2008,08,16,07,31,16.60
2008,08,16,07,32,16.60
2008,08,16,07,33,16.60
2008,08,16,07,34,16.70
2008,08,16,07,35,16.70
2008,08,16,07,36,16.70
2008,08,16,07,37,16.70
2008,08,16,07,38,16.70
2008,08,16,07,39,16.70
2008,08,16,07,40,16.80
2008,08,16,07,41,16.80
2008,08,16,07,42,16.80
2008,08,16,07,43,16.90
2008,08,16,07,44,16.90
2008,08,16,07,45,16.90
2008,08,16,07,46,17.00
2008,08,16,07,47,17.00
2008,08,16,07,48,17.10
2008,08,16,07,49,17.20
2008,08,16,07,50,17.30
2008,08,16,07,51,17.30
2008,08,16,07,52,17.30
2008,08,16,07,53,17.40
2008,08,16,07,54,17.50
2008,08,16,07,55,17.60
2008,08,16,07,56,17.60
2008,08,16,07,57,17.70
2008,08,16,07,58,17.80
2008,08,16,07,59,17.80
2008,08,16,08,00,17.80
2008,08,16,08,01,17.90
2008,08,16,08,02,17.90
2008,08,16,08,03,17.90
2008,08,16,08,04,17.90
2008,08,16,08,05,17.90
2008,08,16,08,06,18.10
2008,08,16,08,07,18.10
2008,08,16,08,08,18.10
2008,08,16,08,09,18.20
2008,08,16,08,10,18.20
2008,08,16,08,11,18.30
2008,08,16,08,12,18.30
2008,08,16,08,13,18.40
2008,08,16,08,14,18.40
2008,08,16,08,15,18.50
2008,08,16,08,16,18.60
2008,08,16,08,17,18.70
2008,08,16,08,18,18.80
2008,08,16,08,19,18.90
2008,08,16,08,20,19.00
2008,08,16,08,21,19.10
2008,08,16,08,22,19.20
2008,08,16,08,23,19.20
2008,08,16,08,24,19.30
2008,08,16,08,25,19.40
2008,08,16,08,26,19.40
2008,08,16,08,27,19.50
2008,08,16,08,28,19.50
2008,08,16,08,29,19.60
2008,08,16,08,30,19.60
2008,08,16,08,31,19.70
2008,08,16,08,32,19.70
2008,08,16,08,33,19.80
2008,08,16,08,34,19.90
2008,08,16,08,35,20.00
2008,08,16,08,36,20.10
2008,08,16,08,37,20.20
2008,08,16,08,38,20.40
2008,08,16,08,39,20.50
2008,08,16,08,40,20.60
2008,08,16,08,41,20.60
2008,08,16,08,42,20.80
2008,08,16,08,43,20.90
2008,08,16,08,44,21.00
2008,08,16,08,45,21.20
2008,08,16,08,46,21.30
2008,08,16,08,47,21.40
2008,08,16,08,48,21.60
2008,08,16,08,49,21.60
2008,08,16,08,50,21.70
2008,08,16,08,51,21.80
2008,08,16,08,52,21.90
2008,08,16,08,53,22.00
2008,08,16,08,54,22.20
2008,08,16,08,55,22.30
2008,08,16,08,56,22.40
2008,08,16,08,57,22.60
2008,08,16,08,58,22.60
2008,08,16,08,59,22.70
2008,08,16,09,00,22.80
2008,08,16,09,01,22.90
2008,08,16,09,02,22.90
2008,08,16,09,03,22.90
2008,08,16,09,04,23.00
2008,08,16,09,05,23.10
2008,08,16,09,06,23.20
2008,08,16,09,07,23.20
2008,08,16,09,08,23.30
2008,08,16,09,09,23.30
2008,08,16,09,10,23.40
2008,08,16,09,11,23.50
2008,08,16,09,12,23.60
2008,08,16,09,13,23.70
2008,08,16,09,14,23.70
2008,08,16,09,15,23.70
2008,08,16,09,16,23.80
2008,08,16,09,17,23.90
2008,08,16,09,18,23.90
2008,08,16,09,19,24.10
2008,08,16,09,20,24.10
2008,08,16,09,21,24.20
2008,08,16,09,22,24.30
2008,08,16,09,23,24.40
2008,08,16,09,24,24.50
2008,08,16,09,25,24.40
2008,08,16,09,26,24.40
2008,08,16,09,27,24.30
2008,08,16,09,28,24.10
2008,08,16,09,29,24.10
2008,08,16,09,30,24.10
2008,08,16,09,31,24.20
2008,08,16,09,32,24.30
2008,08,16,09,33,24.30
2008,08,16,09,34,24.30
2008,08,16,09,35,24.10
2008,08,16,09,36,24.00
2008,08,16,09,37,23.80
2008,08,16,09,38,23.50
2008,08,16,09,39,23.30
2008,08,16,09,40,23.10
2008,08,16,09,41,22.90
2008,08,16,09,42,22.90
2008,08,16,09,43,22.90
2008,08,16,09,44,22.90
2008,08,16,09,45,22.90
2008,08,16,09,46,22.80
2008,08,16,09,47,22.80
2008,08,16,09,48,22.80
2008,08,16,09,49,22.80
2008,08,16,09,50,22.80
2008,08,16,09,51,22.80
2008,08,16,09,52,22.90
2008,08,16,09,53,22.90
2008,08,16,09,54,22.90
2008,08,16,09,55,22.90
2008,08,16,09,56,22.90
2008,08,16,09,57,22.90
2008,08,16,09,58,22.80
2008,08,16,09,59,22.80
2008,08,16,10,00,22.90
2008,08,16,10,01,22.90
2008,08,16,10,02,23.00
2008,08,16,10,03,23.10
2008,08,16,10,04,23.30
2008,08,16,10,05,23.30
2008,08,16,10,06,23.40
2008,08,16,10,07,23.60
2008,08,16,10,08,23.70
2008,08,16,10,09,23.70
2008,08,16,10,10,23.70
2008,08,16,10,11,23.70
2008,08,16,10,12,23.60
2008,08,16,10,13,23.40
2008,08,16,10,14,23.40
2008,08,16,10,15,23.40
2008,08,16,10,16,23.40
2008,08,16,10,17,23.40
2008,08,16,10,18,23.30
2008,08,16,10,19,23.30
2008,08,16,10,20,23.30
2008,08,16,10,21,23.30
2008,08,16,10,22,23.30
2008,08,16,10,23,23.40
2008,08,16,10,24,23.50
2008,08,16,10,25,23.40
2008,08,16,10,26,23.30
2008,08,16,10,27,23.30
2008,08,16,10,28,23.30
2008,08,16,10,29,23.30
2008,08,16,10,30,23.30
2008,08,16,10,31,23.30
2008,08,16,10,32,23.30
2008,08,16,10,33,23.30
2008,08,16,10,34,23.40
2008,08,16,10,35,23.40
2008,08,16,10,36,23.60
2008,08,16,10,37,23.60
2008,08,16,10,38,23.70
2008,08,16,10,39,23.70
2008,08,16,10,40,23.80
2008,08,16,10,41,23.70
2008,08,16,10,42,23.70
2008,08,16,10,43,23.70
2008,08,16,10,44,23.70
2008,08,16,10,45,23.70
2008,08,16,10,46,23.70
2008,08,16,10,47,23.70
2008,08,16,10,48,23.80
2008,08,16,10,49,23.80
2008,08,16,10,50,23.80
2008,08,16,10,51,23.70
2008,08,16,10,52,23.70
2008,08,16,10,53,23.50
2008,08,16,10,54,23.30
2008,08,16,10,55,23.20
2008,08,16,10,56,23.20
2008,08,16,10,57,23.10
2008,08,16,10,58,23.20
2008,08,16,10,59,23.20
2008,08,16,11,00,23.20
2008,08,16,11,01,23.10
2008,08,16,11,02,23.10
2008,08,16,11,03,23.20
2008,08,16,11,04,23.20
2008,08,16,11,05,23.30
2008,08,16,11,06,23.30
2008,08,16,11,07,23.30
2008,08,16,11,08,23.40
2008,08,16,11,09,23.30
2008,08,16,11,10,23.30
2008,08,16,11,11,23.20
2008,08,16,11,12,23.10
2008,08,16,11,13,23.10
2008,08,16,11,14,23.20
2008,08,16,11,15,23.20
2008,08,16,11,16,23.30
2008,08,16,11,17,23.30
2008,08,16,11,18,23.30
2008,08,16,11,19,23.30
2008,08,16,11,20,23.30
2008,08,16,11,21,23.30
2008,08,16,11,22,23.30
2008,08,16,11,23,23.30
2008,08,16,11,24,23.40
2008,08,16,11,25,23.30
2008,08,16,11,26,23.30
2008,08,16,11,27,23.40
2008,08,16,11,28,23.40
2008,08,16,11,29,23.50
2008,08,16,11,30,23.60
2008,08,16,11,31,23.70
2008,08,16,11,32,23.70
2008,08,16,11,33,23.70
2008,08,16,11,34,23.70
2008,08,16,11,35,23.70
2008,08,16,11,36,23.70
2008,08,16,11,37,23.70
2008,08,16,11,38,23.70
2008,08,16,11,39,23.70
2008,08,16,11,40,23.70
2008,08,16,11,41,23.70
2008,08,16,11,42,23.70
2008,08,16,11,43,23.70
2008,08,16,11,44,23.70
2008,08,16,11,45,23.70
2008,08,16,11,46,23.70
2008,08,16,11,47,23.60
2008,08,16,11,48,23.50
2008,08,16,11,49,23.40
2008,08,16,11,50,23.40
2008,08,16,11,51,23.40
2008,08,16,11,52,23.40
2008,08,16,11,53,23.40
2008,08,16,11,54,23.50
2008,08,16,11,55,23.60
2008,08,16,11,56,23.70
2008,08,16,11,57,23.70
2008,08,16,11,58,23.60
2008,08,16,11,59,23.50
2008,08,16,12,00,23.40
2008,08,16,12,01,23.50
2008,08,16,12,02,23.60
2008,08,16,12,03,23.60
2008,08,16,12,04,23.60
2008,08,16,12,05,23.70
2008,08,16,12,06,23.80
2008,08,16,12,07,23.80
2008,08,16,12,08,23.80
2008,08,16,12,09,23.80
2008,08,16,12,10,24.00
2008,08,16,12,11,24.10
2008,08,16,12,12,24.30
2008,08,16,12,13,24.40
2008,08,16,12,14,24.50
2008,08,16,12,15,24.70
2008,08,16,12,16,24.80
2008,08,16,12,17,25.00
2008,08,16,12,18,25.00
2008,08,16,12,19,25.10
2008,08,16,12,20,25.20
2008,08,16,12,21,25.20
2008,08,16,12,22,25.20
2008,08,16,12,23,25.20
2008,08,16,12,24,25.10
2008,08,16,12,25,25.20
2008,08,16,12,26,25.20
2008,08,16,12,27,25.20
2008,08,16,12,28,25.10
2008,08,16,12,29,25.20
2008,08,16,12,30,25.30
2008,08,16,12,31,25.40
2008,08,16,12,32,25.50
2008,08,16,12,33,25.50
2008,08,16,12,34,25.50
2008,08,16,12,35,25.50
2008,08,16,12,36,25.50
2008,08,16,12,37,25.60
2008,08,16,12,38,25.60
2008,08,16,12,39,25.60
2008,08,16,12,40,25.70
2008,08,16,12,41,25.70
2008,08,16,12,42,25.60
2008,08,16,12,43,25.60
2008,08,16,12,44,25.70
2008,08,16,12,45,25.60
2008,08,16,12,46,25.40
2008,08,16,12,47,25.20
2008,08,16,12,48,25.00
2008,08,16,12,49,25.00
2008,08,16,12,50,25.10
2008,08,16,12,51,25.00
2008,08,16,12,52,24.90
2008,08,16,12,53,25.00
2008,08,16,12,54,25.00
2008,08,16,12,55,25.10
2008,08,16,12,56,25.20
2008,08,16,12,57,25.40
2008,08,16,12,58,25.40
2008,08,16,12,59,25.40
2008,08,16,13,00,25.30
2008,08,16,13,01,25.20
2008,08,16,13,02,25.20
2008,08,16,13,03,25.10
2008,08,16,13,04,25.10
2008,08,16,13,05,25.10
2008,08,16,13,06,25.20
2008,08,16,13,07,25.30
2008,08,16,13,08,25.40
2008,08,16,13,09,25.40
2008,08,16,13,10,25.40
2008,08,16,13,11,25.40
2008,08,16,13,12,25.30
2008,08,16,13,13,25.20
2008,08,16,13,14,25.20
2008,08,16,13,15,25.20
2008,08,16,13,16,25.10
2008,08,16,13,17,25.20
2008,08,16,13,18,25.20
2008,08,16,13,19,25.20
2008,08,16,13,20,25.20
2008,08,16,13,21,25.20
2008,08,16,13,22,25.10
2008,08,16,13,23,25.00
2008,08,16,13,24,25.00
2008,08,16,13,25,25.10
2008,08,16,13,26,25.10
2008,08,16,13,27,25.20
2008,08,16,13,28,25.30
2008,08,16,13,29,25.40
2008,08,16,13,30,25.40
2008,08,16,13,31,25.60
2008,08,16,13,32,25.60
2008,08,16,13,33,25.60
2008,08,16,13,34,25.70
2008,08,16,13,35,25.70
2008,08,16,13,36,25.80
2008,08,16,13,37,25.80
2008,08,16,13,38,25.90
2008,08,16,13,39,25.90
2008,08,16,13,40,25.80
2008,08,16,13,41,26.00
2008,08,16,13,42,26.10
2008,08,16,13,43,26.10
2008,08,16,13,44,26.00
2008,08,16,13,45,26.10
2008,08,16,13,46,26.10
2008,08,16,13,47,26.00
2008,08,16,13,48,26.00
2008,08,16,13,49,26.00
2008,08,16,13,50,26.00
2008,08,16,13,51,25.90
2008,08,16,13,52,25.90
2008,08,16,13,53,25.80
2008,08,16,13,54,25.70
2008,08,16,13,55,25.70
2008,08,16,13,56,25.70
2008,08,16,13,57,25.60
2008,08,16,13,58,25.60
2008,08,16,13,59,25.50
2008,08,16,14,00,25.50
2008,08,16,14,01,25.30
2008,08,16,14,02,25.30
2008,08,16,14,03,25.30
2008,08,16,14,04,25.40
2008,08,16,14,05,25.50
2008,08,16,14,06,25.50
2008,08,16,14,07,25.50
2008,08,16,14,08,25.40
2008,08,16,14,09,25.30
2008,08,16,14,10,25.10
2008,08,16,14,11,24.90
2008,08,16,14,12,24.90
2008,08,16,14,13,25.00
2008,08,16,14,14,25.10
2008,08,16,14,15,25.30
2008,08,16,14,16,25.50
2008,08,16,14,17,25.50
2008,08,16,14,18,25.50
2008,08,16,14,19,25.60
2008,08,16,14,20,25.70
2008,08,16,14,21,25.70
2008,08,16,14,22,25.80
2008,08,16,14,23,25.80
2008,08,16,14,24,25.80
2008,08,16,14,25,25.80
2008,08,16,14,26,25.90
2008,08,16,14,27,26.00
2008,08,16,14,28,26.20
2008,08,16,14,29,26.20
2008,08,16,14,30,26.40
2008,08,16,14,31,26.50
2008,08,16,14,32,26.70
2008,08,16,14,33,26.80
2008,08,16,14,34,26.80
2008,08,16,14,35,26.90
2008,08,16,14,36,26.80
2008,08,16,14,37,26.60
2008,08,16,14,38,26.60
2008,08,16,14,39,26.40
2008,08,16,14,40,26.50
2008,08,16,14,41,26.60
2008,08,16,14,42,26.60
2008,08,16,14,43,26.60
2008,08,16,14,44,26.70
2008,08,16,14,45,26.70
2008,08,16,14,46,26.70
2008,08,16,14,47,26.80
2008,08,16,14,48,26.90
2008,08,16,14,49,27.00
2008,08,16,14,50,27.00
2008,08,16,14,51,27.00
2008,08,16,14,52,26.90
2008,08,16,14,53,26.90
2008,08,16,14,54,26.90
2008,08,16,14,55,27.00
2008,08,16,14,56,27.10
2008,08,16,14,57,27.20
2008,08,16,14,58,27.30
2008,08,16,14,59,27.30
2008,08,16,15,00,27.30
2008,08,16,15,01,27.30
2008,08,16,15,02,27.50
2008,08,16,15,03,27.60
2008,08,16,15,04,27.70
2008,08,16,15,05,27.80
2008,08,16,15,06,27.90
2008,08,16,15,07,28.00
2008,08,16,15,08,28.00
2008,08,16,15,09,28.10
2008,08,16,15,10,28.10
2008,08,16,15,11,28.10
2008,08,16,15,12,28.10
2008,08,16,15,13,28.20
2008,08,16,15,14,28.30
2008,08,16,15,15,28.40
2008,08,16,15,16,28.40
2008,08,16,15,17,28.30
2008,08,16,15,18,28.20
2008,08,16,15,19,28.00
2008,08,16,15,20,27.90
2008,08,16,15,21,27.80
2008,08,16,15,22,27.80
2008,08,16,15,23,27.80
2008,08,16,15,24,27.70
2008,08,16,15,25,27.70
2008,08,16,15,26,27.70
2008,08,16,15,27,27.70
2008,08,16,15,28,27.70
2008,08,16,15,29,27.80
2008,08,16,15,30,27.90
2008,08,16,15,31,27.90
2008,08,16,15,32,27.90
2008,08,16,15,33,28.00
2008,08,16,15,34,28.10
2008,08,16,15,35,28.20
2008,08,16,15,36,28.20
2008,08,16,15,37,28.20
2008,08,16,15,38,28.20
2008,08,16,15,39,28.30
2008,08,16,15,40,28.30
2008,08,16,15,41,28.30
2008,08,16,15,42,28.30
2008,08,16,15,43,28.30
2008,08,16,15,44,28.30
2008,08,16,15,45,28.30
2008,08,16,15,46,28.20
2008,08,16,15,47,28.30
2008,08,16,15,48,28.30
2008,08,16,15,49,28.40
2008,08,16,15,50,28.30
2008,08,16,15,51,28.10
2008,08,16,15,52,28.10
2008,08,16,15,53,28.20
2008,08,16,15,54,28.20
2008,08,16,15,55,28.20
2008,08,16,15,56,28.30
2008,08,16,15,57,28.40
2008,08,16,15,58,28.60
2008,08,16,15,59,28.70
2008,08,16,16,00,28.80
2008,08,16,16,01,28.80
2008,08,16,16,02,28.80
2008,08,16,16,03,28.80
2008,08,16,16,04,28.90
2008,08,16,16,05,28.90
2008,08,16,16,06,28.90
2008,08,16,16,07,29.00
2008,08,16,16,08,29.10
2008,08,16,16,09,29.10
2008,08,16,16,10,29.10
2008,08,16,16,11,29.00
2008,08,16,16,12,28.90
2008,08,16,16,13,28.70
2008,08,16,16,14,28.60
2008,08,16,16,15,28.50
2008,08,16,16,16,28.40
2008,08,16,16,17,28.50
2008,08,16,16,18,28.60
2008,08,16,16,19,28.70
2008,08,16,16,20,28.80
2008,08,16,16,21,28.80
2008,08,16,16,22,28.80
2008,08,16,16,23,28.80
2008,08,16,16,24,28.80
2008,08,16,16,25,28.70
2008,08,16,16,26,28.70
2008,08,16,16,27,28.70
2008,08,16,16,28,28.70
2008,08,16,16,29,28.70
2008,08,16,16,30,28.70
2008,08,16,16,31,28.60
2008,08,16,16,32,28.60
2008,08,16,16,33,28.60
2008,08,16,16,34,28.50
2008,08,16,16,35,28.50
2008,08,16,16,36,28.60
2008,08,16,16,37,28.70
2008,08,16,16,38,28.70
2008,08,16,16,39,28.80
2008,08,16,16,40,28.80
2008,08,16,16,41,28.90
2008,08,16,16,42,28.90
2008,08,16,16,43,29.00
2008,08,16,16,44,29.10
2008,08,16,16,45,29.10
2008,08,16,16,46,29.10
2008,08,16,16,47,29.10
2008,08,16,16,48,29.00
2008,08,16,16,49,28.90
2008,08,16,16,50,28.90
2008,08,16,16,51,28.90
2008,08,16,16,52,28.90
2008,08,16,16,53,28.90
2008,08,16,16,54,28.90
2008,08,16,16,55,28.90
2008,08,16,16,56,28.80
2008,08,16,16,57,28.70
2008,08,16,16,58,28.70
2008,08,16,16,59,28.70
2008,08,16,17,00,28.70
2008,08,16,17,01,28.80
2008,08,16,17,02,28.80
2008,08,16,17,03,28.90
2008,08,16,17,04,28.90
2008,08,16,17,05,28.90
2008,08,16,17,06,28.90
2008,08,16,17,07,28.90
2008,08,16,17,08,28.90
2008,08,16,17,09,28.90
2008,08,16,17,10,28.90
2008,08,16,17,11,28.90
2008,08,16,17,12,28.90
2008,08,16,17,13,28.90
2008,08,16,17,14,28.90
2008,08,16,17,15,28.90
2008,08,16,17,16,29.00
2008,08,16,17,17,29.10
2008,08,16,17,18,29.10
2008,08,16,17,19,29.20